This is the latest recevied weather packets stored in our database for station/object ALTO-WX. If no packets are shown the sender has not sent any weather packets the latest 10 day(s).
| Time | Temp. | Humidity | Pressure | Rain* | Wind** | Luminosity | Snow |
|---|---|---|---|---|---|---|---|
| 1778265934 | 16.67° C | 25% | 979.5 hPa | 0 mm | - | - | - |
| 1778265054 | 16.11° C | 26% | 979.2 hPa | 0 mm | - | - | - |
| 1778264135 | 16.11° C | 26% | 979.2 hPa | 0 mm | - | - | - |
| 1778263263 | 16.11° C | 26% | 979.2 hPa | 0 mm | - | - | - |
| 1778262335 | 15.56° C | 31% | 980.2 hPa | 0 mm | - | - | - |
| 1778261453 | 15.56° C | 31% | 980.2 hPa | 0 mm | - | - | - |
| 1778260535 | 15° C | 31% | 980.2 hPa | 0 mm | - | - | - |
| 1778259660 | 15° C | 30% | 980.2 hPa | 0 mm | - | - | - |
| 1778258734 | 14.44° C | 38% | 980.5 hPa | 0 mm | - | - | - |
| 1778257853 | 14.44° C | 38% | 980.7 hPa | 0 mm | - | - | - |
| 1778256935 | 13.33° C | 38% | 980.7 hPa | 0 mm | - | - | - |
| 1778256064 | 12.78° C | 38% | 980.7 hPa | 0 mm | - | - | - |
| 1778255135 | 12.78° C | 42% | 981.7 hPa | 0 mm | - | - | - |
| 1778254255 | 12.22° C | 45% | 980.6 hPa | 0 mm | - | - | - |
| 1778253335 | 11.67° C | 45% | 980.6 hPa | 0 mm | - | - | - |
| 1778252463 | 11.11° C | 45% | 980.6 hPa | 0 mm | - | - | - |
| 1778251535 | 10.56° C | 57% | 980.8 hPa | 0 mm | - | - | - |
| 1778250652 | 10.56° C | 61% | 981 hPa | 0 mm | - | - | - |
| 1778249736 | 10° C | 61% | 981 hPa | 0 mm | - | - | - |
| 1778248870 | 9.44° C | 63% | 980.8 hPa | 0 mm | - | - | - |
| 1778247935 | 8.89° C | 73% | 980.6 hPa | 0 mm | - | - | - |
| 1778247050 | 7.78° C | 73% | 980.6 hPa | 0 mm | - | - | - |
| 1778246135 | 7.22° C | 73% | 980.6 hPa | 0 mm | - | - | - |
| 1778245267 | 6.11° C | 73% | 980.6 hPa | 0 mm | - | - | - |
| 1778244335 | 5.56° C | 84% | 980 hPa | 0 mm | - | - | - |
* Rain latest hour (hover to see other rain measurements)
** Current wind speed in m/s (hover to see current wind gust speed)